Previsão horária em Almaya

Hoje, 28 Janeiro, Quinta-feira

Tempo Temperatura Precipitação Vento Pressão Humidade
00:00 +9°C° 0 mm 2 m/s 543 mmHg 80%
01:00 +8°C° 0 mm 2 m/s 543 mmHg 81%
02:00 +8°C° 0 mm 2 m/s 543 mmHg 81%
03:00 +7°C° 0 mm 2 m/s 542 mmHg 81%
04:00 +7°C° 0 mm 2 m/s 542 mmHg 81%
05:00 +6°C° 0 mm 2 m/s 542 mmHg 80%
06:00 +7°C° 0 mm 2 m/s 543 mmHg 76%
07:00 +8°C° 0 mm 3 m/s 544 mmHg 72%
08:00 +8°C° 0 mm 3 m/s 544 mmHg 68%
09:00 +10°C° 0 mm 2 m/s 545 mmHg 61%
10:00 +13°C° 0 mm 2 m/s 546 mmHg 53%
11:00 +15°C° 0 mm 2 m/s 547 mmHg 46%
12:00 +16°C° 0 mm 2 m/s 547 mmHg 45%
13:00 +17°C° 0 mm 2 m/s 547 mmHg 43%
14:00 +18°C° 0 mm 2 m/s 546 mmHg 41%
15:00 +16°C° 0 mm 2 m/s 546 mmHg 46%
16:00 +15°C° 0 mm 2 m/s 545 mmHg 50%
17:00 +14°C° 0 mm 2 m/s 545 mmHg 55%
18:00 +13°C° 0 mm 1 m/s 545 mmHg 62%
19:00 +12°C° 0 mm 1 m/s 544 mmHg 68%
20:00 +10°C° 0 mm 1 m/s 544 mmHg 75%
21:00 +10°C° 0 mm 1 m/s 544 mmHg 78%
22:00 +9°C° 0 mm 1 m/s 544 mmHg 82%
23:00 +8°C° 0 mm 1 m/s 543 mmHg 86%

Amanhã, 29 Janeiro, Sexta-feira

Tempo Temperatura Precipitação Vento Pressão Humidade
00:00 +8°C° 0 mm 1 m/s 543 mmHg 87%
01:00 +8°C° 0 mm 1 m/s 542 mmHg 88%
02:00 +7°C° 0 mm 1 m/s 542 mmHg 88%
03:00 +7°C° 0 mm 1 m/s 542 mmHg 88%
04:00 +7°C° 0 mm 1 m/s 541 mmHg 88%
05:00 +7°C° 0 mm 1 m/s 541 mmHg 87%
06:00 +7°C° 0 mm 0 m/s 542 mmHg 80%
07:00 +9°C° 0 mm 0 m/s 543 mmHg 74%
08:00 +10°C° 0 mm 0 m/s 545 mmHg 67%
09:00 +12°C° 0 mm 0 m/s 545 mmHg 58%
10:00 +15°C° 0 mm 1 m/s 546 mmHg 49%
11:00 +19°C° 0 mm 1 m/s 547 mmHg 41%
12:00 +19°C° 0 mm 1 m/s 546 mmHg 40%
13:00 +19°C° 0 mm 1 m/s 546 mmHg 38%
14:00 +18°C° 0 mm 2 m/s 545 mmHg 37%
15:00 +17°C° 0 mm 2 m/s 544 mmHg 43%
16:00 +16°C° 0 mm 2 m/s 543 mmHg 49%
17:00 +15°C° 0 mm 2 m/s 543 mmHg 55%
18:00 +14°C° 0 mm 2 m/s 543 mmHg 60%
19:00 +13°C° 0 mm 1 m/s 543 mmHg 64%
20:00 +12°C° 0 mm 1 m/s 542 mmHg 69%
21:00 +12°C° 0 mm 1 m/s 543 mmHg 68%
22:00 +12°C° 0 mm 1 m/s 543 mmHg 67%
23:00 +11°C° 0 mm 0 m/s 543 mmHg 67%

Depois de amanhã, 30 Janeiro, Sábado

Tempo Temperatura Precipitação Vento Pressão Humidade
00:00 +10°C° 0 mm 0 m/s 542 mmHg 68%
01:00 +10°C° 0 mm 0 m/s 542 mmHg 69%
02:00 +10°C° 0 mm 0 m/s 541 mmHg 70%
03:00 +9°C° 0 mm 0 m/s 541 mmHg 72%
04:00 +9°C° 0 mm 0 m/s 541 mmHg 74%
05:00 +8°C° 0 mm 0 m/s 540 mmHg 76%
06:00 +9°C° 0 mm 0 m/s 541 mmHg 70%
07:00 +11°C° 0 mm 0 m/s 542 mmHg 64%
08:00 +12°C° 0 mm 0 m/s 543 mmHg 57%
09:00 +15°C° 0 mm 1 m/s 544 mmHg 49%
10:00 +18°C° 0 mm 1 m/s 545 mmHg 41%
11:00 +20°C° 0 mm 1 m/s 545 mmHg 33%
12:00 +20°C° 0 mm 2 m/s 545 mmHg 32%
13:00 +20°C° 0 mm 2 m/s 545 mmHg 31%
14:00 +21°C° 0 mm 2 m/s 544 mmHg 29%
15:00 +19°C° 0 mm 2 m/s 544 mmHg 34%
16:00 +19°C° 0 mm 1 m/s 543 mmHg 39%
17:00 +18°C° 0 mm 1 m/s 542 mmHg 43%
18:00 +16°C° 0.1 mm 1 m/s 542 mmHg 47%
19:00 +15°C° 0.1 mm 1 m/s 542 mmHg 51%
20:00 +13°C° 0.1 mm 2 m/s 542 mmHg 54%
21:00 +13°C° 0 mm 1 m/s 542 mmHg 56%
22:00 +12°C° 0 mm 1 m/s 542 mmHg 57%
23:00 +12°C° 0 mm 1 m/s 542 mmHg 59%

31 Janeiro, Domingo

Tempo Temperatura Precipitação Vento Pressão Humidade
00:00 +11°C° 0 mm 1 m/s 541 mmHg 59%
01:00 +11°C° 0 mm 1 m/s 541 mmHg 59%
02:00 +10°C° 0 mm 1 m/s 541 mmHg 60%
03:00 +10°C° 0 mm 1 m/s 540 mmHg 59%
04:00 +10°C° 0 mm 1 m/s 540 mmHg 58%
05:00 +9°C° 0 mm 1 m/s 540 mmHg 57%
06:00 +11°C° 0 mm 1 m/s 541 mmHg 53%
07:00 +12°C° 0 mm 1 m/s 542 mmHg 48%
08:00 +14°C° 0 mm 1 m/s 544 mmHg 43%
09:00 +16°C° 0 mm 1 m/s 544 mmHg 38%
10:00 +19°C° 0 mm 1 m/s 545 mmHg 33%
11:00 +20°C° 0 mm 2 m/s 546 mmHg 28%
12:00 +20°C° 0 mm 2 m/s 546 mmHg 27%
13:00 +20°C° 0 mm 2 m/s 545 mmHg 25%
14:00 +21°C° 0 mm 3 m/s 545 mmHg 24%
15:00 +20°C° 0 mm 3 m/s 544 mmHg 27%
16:00 +18°C° 0 mm 3 m/s 544 mmHg 30%
17:00 +17°C° 0 mm 3 m/s 543 mmHg 33%
18:00 +16°C° 0 mm 3 m/s 543 mmHg 39%
19:00 +13°C° 0 mm 3 m/s 543 mmHg 45%
20:00 +13°C° 0 mm 2 m/s 543 mmHg 51%
21:00 +12°C° 0 mm 2 m/s 543 mmHg 58%
22:00 +10°C° 0 mm 2 m/s 543 mmHg 65%
23:00 +9°C° 0 mm 2 m/s 542 mmHg 72%

1 Fevereiro, Segunda-feira

Tempo Temperatura Precipitação Vento Pressão Humidade
00:00 +8°C° 0 mm 2 m/s 542 mmHg 75%
01:00 +8°C° 0 mm 2 m/s 542 mmHg 79%
02:00 +7°C° 0 mm 2 m/s 541 mmHg 82%
03:00 +7°C° 0 mm 2 m/s 541 mmHg 81%
04:00 +7°C° 0 mm 2 m/s 541 mmHg 80%
05:00 +6°C° 0 mm 2 m/s 541 mmHg 80%
06:00 +8°C° 0 mm 2 m/s 542 mmHg 74%
07:00 +9°C° 0 mm 2 m/s 543 mmHg 69%
08:00 +10°C° 0 mm 2 m/s 544 mmHg 64%
09:00 +13°C° 0 mm 2 m/s 545 mmHg 56%
10:00 +15°C° 0 mm 2 m/s 546 mmHg 48%
11:00 +17°C° 0 mm 2 m/s 546 mmHg 40%
12:00 +17°C° 0 mm 2 m/s 546 mmHg 38%
13:00 +18°C° 0 mm 2 m/s 546 mmHg 36%
14:00 +18°C° 0 mm 2 m/s 545 mmHg 33%
15:00 +17°C° 0 mm 2 m/s 545 mmHg 36%
16:00 +16°C° 0 mm 2 m/s 544 mmHg 40%
17:00 +15°C° 0 mm 1 m/s 543 mmHg 43%
18:00 +14°C° 0 mm 1 m/s 543 mmHg 52%
19:00 +12°C° 0 mm 1 m/s 543 mmHg 60%
20:00 +11°C° 0 mm 1 m/s 542 mmHg 69%
21:00 +10°C° 0 mm 1 m/s 542 mmHg 72%
22:00 +10°C° 0 mm 1 m/s 542 mmHg 75%
23:00 +8°C° 0 mm 0 m/s 542 mmHg 79%

2 Fevereiro, Terça-feira

Tempo Temperatura Precipitação Vento Pressão Humidade
00:00 +8°C° 0 mm 0 m/s 541 mmHg 80%
01:00 +7°C° 0 mm 0 m/s 541 mmHg 81%
02:00 +7°C° 0 mm 0 m/s 540 mmHg 82%
03:00 +7°C° 0 mm 0 m/s 540 mmHg 82%
04:00 +7°C° 0 mm 1 m/s 540 mmHg 82%
05:00 +7°C° 0 mm 1 m/s 540 mmHg 82%
06:00 +9°C° 0 mm 1 m/s 541 mmHg 70%
07:00 +10°C° 0 mm 1 m/s 542 mmHg 58%
08:00 +12°C° 0 mm 1 m/s 543 mmHg 46%
09:00 +14°C° 0 mm 1 m/s 544 mmHg 37%
10:00 +16°C° 0 mm 1 m/s 545 mmHg 28%
11:00 +18°C° 0 mm 2 m/s 546 mmHg 19%
12:00 +19°C° 0 mm 2 m/s 545 mmHg 18%
13:00 +20°C° 0 mm 2 m/s 545 mmHg 18%
14:00 +20°C° 0 mm 2 m/s 544 mmHg 17%
15:00 +19°C° 0 mm 2 m/s 543 mmHg 22%
16:00 +18°C° 0 mm 2 m/s 543 mmHg 26%
17:00 +16°C° 0 mm 1 m/s 542 mmHg 31%
18:00 +15°C° 0 mm 1 m/s 542 mmHg 38%
19:00 +13°C° 0 mm 1 m/s 541 mmHg 44%
20:00 +11°C° 0 mm 1 m/s 541 mmHg 50%
21:00 +11°C° 0 mm 1 m/s 541 mmHg 51%
22:00 +11°C° 0 mm 1 m/s 541 mmHg 52%
23:00 +9°C° 0 mm 0 m/s 541 mmHg 53%
Mostrar mais

Necessitamos do seu Consentimento

A Meteoprog e os seus Fornecedores de Serviços podem armazenar e aceder a dados pessoais como cookies, identificadores do dispositivo ou outras tecnologias semelhantes existentes no seu dispositivo e processar estes dados para personalizar conteúdos e anúncios, assim como funcionalidades nas redes sociais e análise de tráfego.

  • Armazenar e/ou aceder a informações no seu dispositivo

    Os cookies, identificadores do dispositivo ou outras informações podem ser armazenados ou acedidos no seu dispositivo, para os fins acima indicados.

  • Anúncios e conteúdos personalizados, medição de anúncios e conteúdos, dados sobre o público-alvo e desenvolvimento de produtos

    Os anúncios e os conteúdos podem ser personalizados com base num perfil. Podem ser adicionados dados adicionais para uma maior personalização dos anúncios e dos conteúdos. A eficácia dos anúncios e dos conteúdos pode ser medida. Podem ser obtidas informações sobre o público que visualizou os anúncios e os conteúdos. Estes dados podem ser usados para desenvolver ou melhorar sistemas, softwares ou a experiência do utilizador.

Ao clicar em "Eu concordo”, permitirá o uso de cookies, identificadores do dispositivo e web beacons mencionados ou outras tecnologias semelhantes. As configurações do navegador do seu dispositivo podem ser alteradas.

Para certos fins, podem ser invocados interesses legítimos ao invés de consentimento. Pode ler mais informação sobre este assunto na nossa Política de Privacidade e Cookies.